LONGJIANG 1 (43471 NORAD) Tracking and Keplerian Element Data

This shows tracking and keplerian element data for the satellite.

Feedback or suggestion? Click here.




ElementValue
Catalog43471
NameLONGJIANG 1
Epoch Orbit1
Epoch Day140.97000001
Epoch Year2018
RAAN209.521
Inclination27.502
Eccentricity0.9658153
Argument of Perigee171.224
Mean Anonmoly2.096
Mean Motion0.09844104
Decay Rate-0.00010094
L11 43471U 18045B 18140.97000001 -.00010094 00000-0 00000-0 0 9993
L22 43471 27.5020 209.5210 9658153 171.2240 2.0960 0.09844104 18

Live tracking and technical data element details for LONGJIANG 1 (NORAD 43471). LONGJIANG 1 can be tracked NOW for your location showing map with azimuth and elevation plus other details from your city location.

Track the satellite on the map from your city or location and see movement details for azimuth, elevation, latitude, longitude, range, height, and movement on the map or in text.







IsCatalogInMostPopularTable: catalog: 43471, numindb: 47
Update: records affected: 1



GetName: 43471 LONGJIANG 1

Hit Count: updated at: Thu, 15 Nov 2018 03:41:37 GMT